sat.trackr.live / text

‹ back to catalog

STARLINK-32431

NORAD 61256 · 2024-175P

PAYLOAD ACTIVE UNKNOWN

§ Identity

Operator
Country
US
Launch date
2024-09-25
Launch site
AFWTR
Launch vehicle
Mass (kg)
RCS (m²)

Purposes: comms

External: N2YO · Heavens-Above · Gunter

§ Orbital elements

Epoch: 2026-09-21T18:37:57.704448Z

Period
93.85 min
Inclination
53.1608°
Eccentricity
0.0001083
Mean motion
15.34392353 rev/d
Perigee alt
462.0 km
Apogee alt
463.5 km
Semi-major
6,840.9 km
B*
1.0739e-7
RAAN
359.8118°
Arg perigee
102.1519°
Mean anomaly
257.9605°
Rev number
11,152

§ Raw data

STARLINK-324311 61256U 24175P   26264.77636232 -.00000372  00000+0  10739-6 0  99932 61256  53.1608 359.8118 0001083 102.1519 257.9605 15.34392353111523

JSON: /api/v1/satellites/61256 · /tle

For live sub-satellite position, see the globe view (requires WebGL).

§ Visibility from observer

Set your observer location to see the next 7 days of passes ≥ 10°. The values pass through the URL so the page stays shareable.

No JS? Fill the form by hand. The geolocation button needs JavaScript.